{"data":{"norad_id":56797,"intl_designator":"2023-078AG","name":"STARLINK-6058","alt_names":[],"object_type":"PAYLOAD","status":"ACTIVE","operator":null,"country":"US","launch_date":"2023-05-31","launch_site_code":"AFWTR","launch_vehicle":null,"mission":null,"orbit_class":"UNKNOWN","rcs_meters":null,"size_class":null,"mass_kg":null,"dimensions":null,"purposes":["comms"],"wikipedia_slug":null,"has_3d_model":false,"image_url":null,"decayed_at":null,"tle_current":{"epoch":"2026-09-20T16:00:01.999584Z","epoch_age_seconds":103219,"freshness":"FRESH","line1":"1 56797U 23078AG  26263.66668981  .00048584  00000+0  40540-2 0  9996","line2":"2 56797  70.0010 213.0152 0003348 268.4763  15.6055 14.98304835  5778","mean_motion":14.98304835,"eccentricity":0.0003348,"inclination_deg":70.001,"raan_deg":213.0152,"arg_perigee_deg":268.4763,"mean_anomaly_deg":15.6055,"bstar":0.004054,"rev_number":577,"period_min":96.108613304982,"perigee_km":569.80676208563,"apogee_km":574.46066335487,"semimajor_km":6950.2707127203,"source":"CELESTRAK","updated_at":"2026-09-21T09:00:33.509593Z"}}}